Regional Weather Roundup
Issued by NWS

Home | Current Version | Previous Version | Text Only | Print | Product List | Glossary On
Versions: 1 2 3 4 5 6 7 8 9 10 11 12 13 14 15 16 17 18 19 20 21 22 23 24 25 26 27 28 29 30 31 32 33 34 35 36 37 38 39 40 41 42 43 44 45 46 47 48 49 50
700
ASUS46 KSTO 130215
RWRCA

NORTHERN AND CENTRAL CA REGIONAL WEATHER ROUNDUP
NATIONAL WEATHER SERVICE SACRAMENTO CA
600 PM PST TUE DEC 12 2017

NOTE: FAIR INDICATES FEW OR NO CLOUDS BELOW 12,000 FEET WITH NO
SIGNIFICANT WEATHER AND/OR OBSTRUCTIONS TO VISIBILITY.

CAZ001-003-130300-
NORTHWEST AREA

CITY           SKY/WX    TMP DP  RH WIND       PRES   REMARKS
CRESCENT CITY  CLEAR     49  43  80 NW3       30.26F
UKIAH          CLEAR     47  35  63 CALM      30.20S
$$

CAZ006-505>513-130300-
BAY AREA

CITY           SKY/WX    TMP DP  RH WIND       PRES   REMARKS
SANTA ROSA     CLEAR     50  42  74 W3        30.18S
SAN RAFAEL     N/A       57  MM  MM MISG
NAPA           CLEAR     44  36  73 E3        30.20S
CONCORD        CLEAR     53  42  66 N3        30.19F
OAKLAND CITY   N/A      MM  MM  MM MISG
OAKLAND        PTCLDY    49  41  74 CALM      30.19S
SAN FRAN CITY  N/A       57  MM  41 MISG
SAN FRAN ARPT  CLEAR     56  40  55 S5        30.18S
LIVERMORE      CLEAR     47  33  58 NE3       30.19S
HAYWARD        CLEAR     55  38  52 CALM      30.19S
REDWOOD CITY   N/A       51  MM  61 MISG
MOFFETT ARPT   CLEAR     53  43  68 CALM      30.19S
SAN JOSE ARPT  PTCLDY    58  37  45 CALM      30.18F
$$
CAZ034-037-514>518-130300-
CENTRAL COAST

CITY           SKY/WX    TMP DP  RH WIND       PRES   REMARKS
WATSONVILLE    CLEAR     57  39  51 NW5       30.16S
SALINAS        CLEAR     60  35  39 SW8       30.14S
MONTEREY       CLEAR     54  36  50 E6        30.16S
SAN LUIS OBISP CLEAR     69  13  11 W5        30.08R
SANTA MARIA    CLEAR     61  34  36 CALM      30.08R
$$
CAZ015-016-130300-
NORTHERN SACRAMENTO VALLEY

CITY           SKY/WX    TMP DP  RH WIND       PRES   REMARKS
REDDING        CLEAR     57  32  38 NW6       30.19S
RED BLUFF      CLEAR     48  32  53 NW5       30.19F
OROVILLE       CLEAR     48  36  63 CALM      30.21S
$$
CAZ016>018-130300-
SOUTHERN SACRAMENTO VALLEY

CITY           SKY/WX    TMP DP  RH WIND       PRES   REMARKS
AUBURN         CLEAR     39  37  93 CALM      30.20S
BEALE AFB      CLEAR     45  36  71 NE5       30.18S
LINCOLN        FAIR      45  36  70 CALM      30.19S
MARYSVILLE     CLEAR     47  35  63 CALM      30.20S
SAC INTL ARPT  CLEAR     45  39  79 CALM      30.19F
MATHER AIRPORT CLEAR     45  36  70 CALM      30.19F
DOWNTOWN SAC   N/A       50  MM  MM MISG
SAC EXEC ARPT  CLEAR     47  39  74 CALM      30.20S
VACAVILLE      CLEAR     47  36  65 SW5       30.21S
TRAVIS AFB     CLEAR     42  35  77 NW3       30.18F
$$
CAZ019>021-130300-
SAN JOAQUIN VALLEY

CITY           SKY/WX    TMP DP  RH WIND       PRES   REMARKS
STOCKTON       CLEAR     49  38  65 W3        30.19F
MODESTO        CLEAR     49  42  77 CALM      30.19F
MERCED         CLEAR     49  38  65 CALM      30.20S HAZE
LEMOORE        CLEAR     47  31  53 N3        30.22R
FRESNO         CLEAR     55  39  54 CALM      30.22R HAZE
HANFORD        CLEAR     46  40  79 CALM      30.22R HAZE
PORTERVILLE    CLEAR     51  37  58 CALM      30.22R HAZE
BAKERSFIELD    PTCLDY    51  31  46 N3        30.20R HAZE
$$
CAZ011-012-071-130300-
NORTHERN MOUNTAINS

CITY           SKY/WX    TMP DP  RH WIND       PRES   REMARKS
YREKA          CLEAR     28  22  78 CALM      30.40S
MOUNT SHASTA   CLEAR     39  21  48 CALM      30.34F
ALTURAS        PTCLDY    29  18  63 CALM      30.38S
$$
CAZ011-012-071-130300-
SIERRA NEVADA MTNS

CITY           SKY/WX    TMP DP  RH WIND       PRES   REMARKS
BLUE CANYON    CLEAR     62   9  12 VRB6      30.32S
TRUCKEE        CLEAR     30  21  69 CALM      30.41R
TAHOE VLY ARPT CLEAR     29  26  89 S3        30.42R
MAMMOTH LAKES  FAIR      32   1  27 NW5       30.43R WCI  27
$$




USA.gov is the U.S. government's official web portal to all federal, state and local government web resources and services.